Home   Weather   Naha   Past weeks

Flag for Japan Past Weather in Naha, Okinawa, Japan — Yesterday and Last 2 Weeks

84 °F

Passing clouds.

Feels Like: 91 °F
Forecast: 79 / 85 °F
Wind: 5 mph from North

Location: Naha Airport

Current Time: Oct 25, 2016 at 5:34:02 PM

Latest Report: Oct 25, 2016 at 5:00 PM

Visibility: N/A

Pressure: 29.92 "Hg

Humidity: 70%

Dew Point: 73 °F

Location of NahaLocation

Past Weather in Naha — Graph


Naha Temperature Yesterday

Maximum temperature yesterday: 86 °F (at 1:30 PM)
Minimum temperature yesterday: 79 °F (at 2:00 AM)
Average temperature yesterday: 82 °F

High & Low Weather Summary for the Past Weeks

High88 °F (Oct 16, 12:30 PM)94% (Oct 14, 1:00 AM)29.98 "Hg (Oct 14, 1:00 AM)
Low77 °F (Oct 14, 1:00 AM)62% (Oct 18, 12:00 PM)29.71 "Hg (Oct 23, 3:00 PM)
Average82 °F79%29.88 "Hg
* Reported Oct 10 4:00 PM — Oct 25 4:30 PM, Naha, Weather by CustomWeather, © 2016

Note: Actual official high and low records may vary slightly from our data, if they occured in-between our weather recording intervals... More about our weather records


Naha Weather History for the Previous 24 Hours

Scroll right to see more
Time TempWeatherWind HumidityBarometerVisibility
4:30 PM
Tue, Oct 25
84 °FPassing clouds.6 mph70%29.89 "HgN/A
4:00 PM84 °FScattered showers. Scattered clouds.6 mph70%29.89 "HgN/A
3:30 PM84 °FScattered clouds.7 mph70%29.89 "HgN/A
3:00 PM84 °FSprinkles. Scattered clouds.6 mph70%29.89 "HgN/A
2:30 PM84 °FSprinkles. Scattered clouds.8 mph70%29.89 "HgN/A
2:00 PM84 °FScattered showers. Scattered clouds.8 mph70%29.92 "HgN/A
1:30 PM86 °FSprinkles. Scattered clouds.8 mph70%29.92 "HgN/A
1:00 PM86 °FSprinkles. Passing clouds.8 mph70%29.92 "HgN/A
12:30 PM86 °FRain showers. Passing clouds.9 mph70%29.92 "HgN/A
12:00 PM86 °FRain showers. Passing clouds.8 mph70%29.92 "HgN/A
11:30 AM84 °FSprinkles. Scattered clouds.6 mph74%29.95 "HgN/A
11:00 AM86 °FScattered clouds.5 mph70%29.95 "HgN/A
10:30 AM86 °FScattered clouds.8 mph66%29.95 "HgN/A
10:00 AM84 °FScattered clouds.6 mph66%29.95 "HgN/A
9:30 AM84 °FPassing clouds.6 mph70%29.95 "HgN/A
9:00 AM84 °FPassing clouds.5 mph70%29.95 "HgN/A
8:30 AM82 °FPassing clouds.5 mph74%29.95 "HgN/A
8:00 AM81 °FPassing clouds.2 mph84%29.95 "HgN/A
7:30 AM81 °FPassing clouds.2 mph84%29.95 "HgN/A
7:00 AM79 °FPassing clouds.2 mph84%29.92 "HgN/A
6:30 AM79 °FPassing clouds.No wind84%29.92 "HgN/A
6:00 AM79 °FPassing clouds.3 mph84%29.89 "HgN/A
5:30 AM79 °FPassing clouds.3 mph84%29.89 "HgN/A
5:00 AM79 °FPassing clouds.5 mph84%29.89 "HgN/A
4:30 AM79 °FSprinkles. Passing clouds.3 mph84%29.89 "HgN/A
4:00 AM79 °FPassing clouds.3 mph84%29.89 "HgN/A
3:30 AM79 °FPassing clouds.2 mph89%29.89 "HgN/A
3:00 AM79 °FPassing clouds.2 mph84%29.89 "HgN/A
2:30 AM79 °FPassing clouds.2 mph84%29.89 "HgN/A
2:00 AM79 °FPassing clouds.3 mph84%29.89 "HgN/A
1:30 AM79 °FPartly cloudy.2 mph84%29.89 "HgN/A
1:00 AM79 °FSprinkles. Partly cloudy.3 mph84%29.89 "HgN/A
12:30 AM81 °FRain showers. Partly cloudy.5 mph74%29.89 "HgN/A
12:00 AM81 °FScattered showers. Partly cloudy.5 mph79%29.89 "HgN/A
11:30 PM
Mon, Oct 24
81 °FScattered showers. Passing clouds.7 mph79%29.89 "HgN/A
11:00 PM81 °FScattered showers. Passing clouds.5 mph79%29.89 "HgN/A
10:30 PM81 °FPassing clouds.3 mph74%29.89 "HgN/A
10:00 PM81 °FPassing clouds.6 mph74%29.89 "HgN/A
9:30 PM81 °FPassing clouds.6 mph74%29.89 "HgN/A
9:00 PM81 °FPassing clouds.8 mph74%29.89 "HgN/A
8:30 PM81 °FPassing clouds.8 mph74%29.89 "HgN/A
8:00 PM82 °FScattered showers. Passing clouds.9 mph70%29.89 "HgN/A
7:30 PM82 °FSprinkles. Partly cloudy.8 mph70%29.86 "HgN/A
7:00 PM82 °FScattered showers. Passing clouds.9 mph70%29.86 "HgN/A
6:30 PM82 °FScattered showers. Passing clouds.10 mph70%29.86 "HgN/A
6:00 PM82 °FPassing clouds.9 mph70%29.83 "HgN/A
5:30 PM82 °FPartly sunny.9 mph74%29.83 "HgN/A
5:00 PM82 °FScattered clouds.15 mph70%29.83 "HgN/A
Weather by CustomWeather, © 2016

See weather overviewHow to use our weather pages